Miscellaneous Local Product
Issued by NWS Hastings, NE

Home | Current Version | Previous Version | Text Only | Print | Product List | Glossary On
Versions: 1 2 3 4 5 6 7 8 9 10 11 12 13 14 15 16 17 18 19 20 21 22 23 24 25 26 27 28 29 30 31 32 33 34 35 36 37 38 39 40 41 42 43 44 45 46 47 48 49 50
671
AXUS43 KGID 281902
MISGRI

GID CWA HOURLY WEATHER ROUNDUP
NATIONAL WEATHER SERVICE HASTINGS NE
200 PM CDT SUN AUG 28 2016

NOTE: "FAIR" INDICATES FEW OR NO CLOUDS BELOW 12,000 FEET WITH NO
SIGNIFICANT WEATHER AND/OR OBSTRUCTIONS TO VISIBILITY.

...SOUTH CENTRAL NEBRASKA...

CITY           SKY/WX    TMP DP  RH WIND       PRES   REMARKS
GRAND ISLAND   MOSUNNY   89  62  40 SE10      30.08F
HASTINGS       MOSUNNY   86  62  44 S10       30.09F
KEARNEY        CLOUDY    82  66  57 SE10      30.08F
ORD            MOSUNNY   87  63  44 S13G21    30.05F
YORK           MOSUNNY   86  70  58 S9        30.09F HX  90
AURORA         MOSUNNY   87  66  49 S9        30.08F
LEXINGTON      MOSUNNY   84  63  50 SE10      30.09S
HOLDREGE       CLOUDY    81  63  53 S9        30.09F
HEBRON         SUNNY     87  69  55 S10       30.08F HX  90

...NEBRASKA PANHANDLE...

CITY           SKY/WX    TMP DP  RH WIND       PRES   REMARKS
CHADRON        SUNNY     90  39  16 SE3       30.00F
ALLIANCE       SUNNY     88  49  25 S12       30.07F
SCOTTSBLUFF    SUNNY     87  42  20 MISG      30.08F
SIDNEY         CLOUDY    86  52  30 SE6       30.12F

...WESTERN AND NORTH CENTRAL NEBRASKA...

CITY           SKY/WX    TMP DP  RH WIND       PRES   REMARKS
VALENTINE      NOT AVBL
AINSWORTH      SUNNY     90  63  41 S17       30.03S HX  90
ONEILL         SUNNY     92  57  30 S14G28    30.04F HX  91
BROKEN BOW     SUNNY     87  62  43 S13G25    30.07F
IMPERIAL       SUNNY     86  56  35 S12G20    30.09F
NORTH PLATTE   SUNNY     91  52  26 S12       30.06F
MCCOOK         CLOUDY    77  58  51 SE12      30.10S

...EASTERN NEBRASKA...

CITY           SKY/WX    TMP DP  RH WIND       PRES   REMARKS
NORFOLK        SUNNY     86  69  56 S12       30.07F HX  90
SO SIOUX CITY  MOSUNNY   86  73  65 S15       30.08S HX  93
TEKAMAH        PTSUNNY   86  73  65 S9        30.08F HX  93
COLUMBUS       CLOUDY    84  68  58 S10G16    30.08F
ALBION         SUNNY     84  68  57 S10       30.08S
OMAHA EPPLEY   PTSUNNY   88  72  58 SE14      30.08F HX  94
OFFUTT AFB     SUNNY     88  75  64 E8        30.07F HX  98
MILLARD        MOSUNNY   89  74  61 SE7       30.08F HX  97
LINCOLN        MOSUNNY   92  68  45 S13G20    30.08F HX  96
NEBRASKA CITY  PTSUNNY   86  71  60 SE7       30.08F HX  91
BEATRICE       SUNNY     87  70  56 S10G18    30.08F HX  92
FALLS CITY     MOSUNNY   89  71  55 SE6       30.08F HX  95

...NORTHERN KANSAS...

CITY           SKY/WX    TMP DP  RH WIND       PRES   REMARKS
GOODLAND       SUNNY     81  56  42 S12G18    30.12F
HILL CITY      CLOUDY    79  64  60 S5        30.11F
NORTON         CLEAR     79  55  44 SE9       30.10R
SMITH CENTER   MOSUNNY   88  66  48 S6        30.08F HX  90
BELOIT         SUNNY     82  68  61 E12       30.06S
HAYS           CLOUDY    81  59  47 SW9       30.10F
RUSSELL        CLOUDY    82  67  60 S8        30.08F
CONCORDIA      SUNNY     89  70  53 SE12      30.08F HX  94
SALINA         SUNNY     90  67  46 S12       30.08F HX  93
TOPEKA         PTSUNNY   89  74  60 SE9       30.09F HX  98



USA.gov is the U.S. government's official web portal to all federal, state and local government web resources and services.